GW1804 Weather Reports


time (UTC)temp
F
wind
direction
speed
knots
gust
knots
rain 1hr
in
rain 24hr
in
rain mn
in
humidity
%
barometer
mb
20260510080532 62 201 0.0 1.7 0.00 0.00 0.00 86 1012.9
20260510080049 62 202 0.0 0.9 0.00 0.00 0.00 86 1012.9
20260510075531 62 0 0.0 0.9 0.00 0.00 0.00 86 1013.0
20260510075031 62 0 0.0 0.9 0.00 0.00 0.00 86 1013.0
20260510074545 62 0 0.0 0.9 0.00 0.00 0.00 86 1013.0
20260510074034 62 0 0.0 0.9 0.00 0.00 0.00 86 1013.1
20260510073532 62 0 0.0 1.7 0.00 0.00 0.00 86 1013.1
20260510073106 62 0 0.0 2.6 0.00 0.00 0.00 86 1013.2
20260510072531 62 0 0.0 2.6 0.00 0.00 0.00 86 1013.1
20260510072031 62 0 0.0 1.7 0.00 0.00 0.00 86 1013.2
20260510071601 62 0 0.0 1.7 0.00 0.00 0.00 86 1013.3
20260510071031 62 0 0.0 0.9 0.00 0.00 0.00 86 1013.2
20260510070530 62 0 0.0 0.9 0.00 0.00 0.00 86 1013.2
20260510070052 62 0 0.0 0.9 0.00 0.00 0.00 86 1013.2
20260510065534 62 0 0.0 0.9 0.00 0.00 0.00 86 1013.3
20260510065031 62 0 0.0 0.9 0.00 0.00 0.00 86 1013.3
20260510064556 62 0 0.0 0.9 0.00 0.00 0.00 86 1013.4
20260510064031 62 0 0.0 1.7 0.00 0.00 0.00 86 1013.4
20260510063534 62 0 0.0 1.7 0.00 0.00 0.00 86 1013.4
20260510063049 62 0 0.0 1.7 0.00 0.00 0.00 86 1013.4
20260510062531 61 0 0.0 1.7 0.00 0.00 0.00 86 1013.4
20260510062031 61 0 0.0 0.9 0.00 0.00 0.00 87 1013.4
20260510061546 61 0 0.0 2.6 0.00 0.00 0.00 86 1013.4
20260510061032 61 0 0.0 4.3 0.00 0.00 0.00 86 1013.4
20260510060532 61 220 1.7 4.3 0.00 0.00 0.00 86 1013.4
20260510060045 62 226 1.7 4.3 0.00 0.00 0.00 86 1013.3
20260510055532 62 214 0.9 2.6 0.00 0.00 0.00 86 1013.3
20260510055034 62 207 0.0 1.7 0.00 0.00 0.00 86 1013.3
20260510054545 62 223 0.0 0.9 0.00 0.00 0.00 86 1013.3
20260510054035 62 0 0.0 0.9 0.00 0.00 0.00 86 1013.3
20260510053555 62 0 0.0 0.9 0.00 0.00 0.00 86 1013.4
20260510053050 61 0 0.0 3.5 0.00 0.00 0.00 86 1013.4
20260510052535 62 0 0.0 3.5 0.00 0.00 0.00 86 1013.4
20260510052038 62 217 0.9 2.6 0.00 0.00 0.00 86 1013.4
20260510051549 62 213 0.0 2.6 0.00 0.00 0.00 86 1013.4
20260510051037 62 0 0.0 2.6 0.00 0.00 0.00 86 1013.4
20260510050535 62 254 0.9 2.6 0.00 0.00 0.00 86 1013.4
20260510050051 62 286 0.0 1.7 0.00 0.00 0.00 86 1013.4
20260510045535 62 0 0.0 2.6 0.00 0.00 0.00 86 1013.3
20260510045040 62 0 0.0 2.6 0.00 0.00 0.00 86 1013.3
20260510044551 62 278 0.0 2.6 0.00 0.00 0.00 86 1013.3
20260510044036 62 277 0.9 2.6 0.00 0.00 0.00 86 1013.2
20260510043536 62 252 0.0 2.6 0.00 0.00 0.00 86 1013.2
20260510043106 62 252 0.9 2.6 0.00 0.00 0.00 86 1013.2
20260510042531 62 0 0.0 1.7 0.00 0.00 0.00 86 1013.2
20260510042036 62 0 0.0 1.7 0.00 0.00 0.00 86 1013.1
20260510041555 62 278 0.0 1.7 0.00 0.00 0.00 86 1013.1
20260510041037 62 0 0.9 1.7 0.00 0.00 0.00 86 1013.0
20260510040536 62 278 0.0 0.9 0.00 0.00 0.00 86 1013.0
20260510040057 62 0 0.0 1.7 0.00 0.00 0.00 86 1012.9
20260510035535 62 0 0.0 1.7 0.00 0.00 0.00 86 1012.9
20260510035035 62 278 0.9 2.6 0.00 0.00 0.00 86 1012.9
20260510034550 62 0 0.0 2.6 0.00 0.00 0.00 86 1012.9
20260510034036 62 243 0.9 2.6 0.00 0.00 0.00 86 1012.8
20260510033535 62 285 0.9 2.6 0.00 0.00 0.00 86 1012.8
20260510033052 62 307 0.9 2.6 0.00 0.00 0.00 86 1012.7
20260510032539 62 0 1.7 2.6 0.00 0.00 0.00 86 1012.7
20260510032037 62 288 0.0 1.7 0.00 0.00 0.00 85 1012.6
20260510031555 62 292 0.9 1.7 0.00 0.00 0.00 85 1012.5
20260510031034 62 0 0.0 1.7 0.00 0.00 0.00 85 1012.5
20260510030534 62 0 0.0 1.7 0.00 0.00 0.00 85 1012.5
20260510030053 62 0 0.0 2.6 0.00 0.00 0.00 85 1012.4
20260510025534 62 0 0.0 2.6 0.00 0.00 0.00 84 1012.4
20260510025035 62 234 0.9 2.6 0.00 0.00 0.00 84 1012.4
20260510024551 62 230 0.9 3.5 0.00 0.00 0.00 84 1012.3
20260510024035 62 230 0.0 3.5 0.00 0.00 0.00 84 1012.3
20260510023539 62 251 1.7 3.5 0.00 0.00 0.00 83 1012.2
20260510023049 62 219 0.9 4.3 0.00 0.00 0.00 83 1012.2
20260510022535 63 219 1.7 4.3 0.00 0.00 0.00 82 1012.2
20260510022035 63 284 0.0 3.5 0.00 0.00 0.00 82 1012.2
20260510021545 63 253 0.9 3.5 0.00 0.00 0.00 82 1012.2
20260510021035 64 296 0.9 3.5 0.00 0.00 0.00 81 1012.2
20260510020535 64 291 0.9 5.2 0.00 0.00 0.00 81 1012.2
20260510020045 64 249 1.7 5.2 0.00 0.00 0.00 80 1012.2
20260510015532 64 277 1.7 5.2 0.00 0.00 0.00 80 1012.2
20260510015036 65 254 0.9 3.5 0.00 0.00 0.00 80 1012.2
20260510014542 65 290 1.7 5.2 0.00 0.00 0.00 80 1012.2
20260510014034 65 279 1.7 5.2 0.00 0.00 0.00 79 1012.3
20260510013536 65 286 1.7 5.2 0.00 0.00 0.00 78 1012.2
20260510013047 66 274 1.7 5.2 0.00 0.00 0.00 78 1012.2
20260510012535 66 269 0.9 5.2 0.00 0.00 0.00 78 1012.2
20260510012036 66 241 1.7 5.2 0.00 0.00 0.00 77 1012.1
20260510011549 67 264 1.7 5.2 0.00 0.00 0.00 77 1012.2
20260510011036 67 265 1.7 5.2 0.00 0.00 0.00 77 1012.2
20260510010535 67 254 1.7 5.2 0.00 0.00 0.00 77 1012.3
20260510010048 67 294 1.7 6.1 0.00 0.00 0.00 77 1012.3
20260510005534 67 193 2.6 6.1 0.00 0.00 0.00 77 1012.3
20260510005032 67 286 2.6 8.7 0.00 0.00 0.00 78 1012.3
20260510004548 67 244 2.6 8.7 0.00 0.00 0.00 77 1012.4
20260510004033 67 301 3.5 8.7 0.00 0.00 0.00 77 1012.3
20260510003532 67 295 3.5 7.8 0.00 0.00 0.00 76 1012.4
20260510003049 68 273 3.5 7.8 0.00 0.00 0.00 75 1012.3
20260510002531 68 266 3.5 7.8 0.00 0.00 0.00 75 1012.3
20260510002031 68 249 2.6 7.8 0.00 0.00 0.00 74 1012.2
20260510001554 69 285 3.5 7.8 0.00 0.00 0.00 74 1012.2
20260510001034 69 270 3.5 7.0 0.00 0.00 0.00 74 1012.1
20260510000536 69 236 2.6 7.0 0.00 0.00 0.00 73 1012.0
20260510000052 69 262 2.6 7.0 0.00 0.00 0.00 73 1012.0
20260509235532 69 295 2.6 6.1 0.00 0.00 0.00 73 1011.9
20260509235035 69 248 2.6 5.2 0.00 0.00 0.00 72 1011.9
20260509234547 69 233 1.7 6.1 0.00 0.00 0.00 72 1012.0
20260509234035 70 236 2.6 6.1 0.00 0.00 0.00 73 1011.9
20260509233535 69 245 2.6 6.1 0.00 0.00 0.00 73 1011.9
20260509233052 69 292 1.7 6.1 0.00 0.00 0.00 72 1011.9
20260509232534 69 223 2.6 6.1 0.00 0.00 0.00 72 1012.0
20260509232032 69 307 2.6 7.0 0.00 0.00 0.00 73 1011.9
20260509231549 69 301 2.6 7.0 0.00 0.00 0.00 73 1011.9
20260509231034 69 261 3.5 7.0 0.00 0.00 0.00 72 1011.9
20260509230532 70 267 2.6 7.0 0.00 0.00 0.00 72 1011.9
20260509230049 70 283 3.5 7.8 0.00 0.00 0.00 73 1011.9
20260509225535 70 273 1.7 7.8 0.00 0.00 0.00 74 1011.9
20260509225037 69 323 2.6 7.8 0.00 0.00 0.00 74 1012.0
20260509224558 69 217 1.7 7.0 0.00 0.00 0.00 74 1012.1
20260509224034 69 284 2.6 7.0 0.00 0.00 0.00 74 1012.3
20260509223535 69 225 3.5 7.0 0.00 0.00 0.00 74 1012.3
20260509223050 69 223 2.6 7.8 0.00 0.00 0.00 73 1012.3
20260509222534 69 224 3.5 7.8 0.00 0.00 0.00 73 1012.4
20260509222036 70 230 2.6 7.0 0.00 0.00 0.00 74 1012.5
20260509221604 70 256 2.6 6.1 0.00 0.00 0.00 74 1012.5
20260509221035 69 225 3.5 6.1 0.00 0.00 0.00 72 1012.5
20260509220535 70 207 2.6 10.4 0.00 0.00 0.00 73 1012.5
20260509220045 70 229 2.6 10.4 0.00 0.00 0.00 74 1012.5
20260509215535 70 303 3.5 7.8 0.00 0.00 0.00 73 1012.6
20260509215035 70 319 2.6 7.0 0.00 0.00 0.00 73 1012.8
20260509214545 70 257 2.6 7.0 0.00 0.00 0.00 75 1012.7
20260509214037 69 265 2.6 7.0 0.00 0.00 0.00 75 1012.6
20260509213532 69 288 3.5 7.0 0.00 0.00 0.00 75 1012.7
20260509213053 69 217 2.6 7.8 0.00 0.00 0.00 75 1012.7
20260509212534 69 242 3.5 8.7 0.00 0.00 0.00 74 1012.8
20260509212033 69 299 2.6 8.7 0.00 0.00 0.00 75 1012.8
20260509211556 69 292 4.3 7.8 0.00 0.00 0.00 75 1012.9
20260509211036 69 271 2.6 7.8 0.00 0.00 0.00 75 1012.9
20260509210537 69 250 3.5 7.8 0.00 0.00 0.00 76 1013.0
20260509210054 69 244 3.5 7.8 0.00 0.00 0.00 75 1012.9
20260509205531 69 312 3.5 7.8 0.00 0.00 0.00 74 1013.0
20260509205034 69 256 4.3 7.0 0.00 0.00 0.00 75 1013.0
20260509204547 69 288 2.6 7.0 0.00 0.00 0.00 75 1013.1
20260509204035 69 263 2.6 7.0 0.00 0.00 0.00 75 1013.2
20260509203536 69 261 2.6 8.7 0.00 0.00 0.00 75 1013.2
20260509203046 69 269 3.5 8.7 0.00 0.00 0.00 76 1013.2
20260509202536 68 265 3.5 8.7 0.00 0.00 0.00 75 1013.2
20260509202035 68 308 3.5 7.8 0.00 0.00 0.00 76 1013.2
20260509201557 68 251 3.5 7.8 0.00 0.00 0.00 75 1013.2
20260509201035 68 261 4.3 8.7 0.00 0.00 0.00 75 1013.2
20260509200534 68 259 3.5 8.7 0.00 0.00 0.00 76 1013.3
20260509195536 68 259 3.5 7.8 0.00 0.00 0.00 75 1013.3
20260509195034 68 321 2.6 8.7 0.00 0.00 0.00 76 1013.2
20260509194555 68 286 3.5 8.7 0.00 0.00 0.00 76 1013.2
20260509194031 68 219 3.5 8.7 0.00 0.00 0.00 77 1013.3
20260509193532 68 274 2.6 8.7 0.00 0.00 0.00 78 1013.3
20260509193057 68 211 3.5 8.7 0.00 0.00 0.00 78 1013.3
20260509192531 68 261 2.6 6.1 0.00 0.00 0.00 77 1013.3
20260509192034 68 271 3.5 6.1 0.00 0.00 0.00 78 1013.3
20260509191546 68 238 3.5 6.1 0.00 0.00 0.00 78 1013.3
20260509191037 68 246 2.6 7.0 0.00 0.00 0.00 79 1013.3
20260509190534 68 252 2.6 8.7 0.00 0.00 0.00 79 1013.3
20260509190051 67 257 3.5 8.7 0.00 0.00 0.00 79 1013.3
20260509185534 67 229 2.6 7.0 0.00 0.00 0.00 79 1013.4
20260509185035 67 286 2.6 7.0 0.00 0.00 0.00 79 1013.4
20260509184543 67 211 3.5 7.8 0.00 0.00 0.00 80 1013.4
20260509184036 67 275 3.5 7.8 0.00 0.00 0.00 79 1013.4
20260509183532 67 251 4.3 7.8 0.00 0.00 0.00 80 1013.3
20260509183051 67 261 3.5 7.0 0.00 0.00 0.00 79 1013.4
20260509182531 67 275 2.6 7.0 0.00 0.00 0.00 80 1013.4
20260509182031 67 210 2.6 7.0 0.00 0.00 0.00 81 1013.4
20260509181555 67 272 1.7 4.3 0.00 0.00 0.00 80 1013.5
20260509181033 67 225 1.7 6.1 0.00 0.00 0.00 81 1013.5
20260509180535 67 213 1.7 6.1 0.00 0.00 0.00 81 1013.5
20260509180055 66 286 1.7 6.1 0.00 0.00 0.00 81 1013.5
20260509175531 66 273 2.6 5.2 0.00 0.00 0.00 81 1013.5
20260509175034 66 296 2.6 5.2 0.00 0.00 0.00 82 1013.5
20260509174544 66 261 1.7 4.3 0.00 0.00 0.00 82 1013.6
20260509174031 66 291 1.7 4.3 0.00 0.00 0.00 82 1013.6
20260509173532 66 215 1.7 6.1 0.00 0.00 0.00 82 1013.6
20260509173048 66 267 2.6 6.1 0.00 0.00 0.00 83 1013.6
20260509172532 66 304 1.7 5.2 0.00 0.00 0.00 84 1013.6
20260509172035 65 283 1.7 5.2 0.00 0.00 0.00 84 1013.6
20260509171548 65 279 0.9 5.2 0.00 0.00 0.00 84 1013.7
20260509171031 65 243 1.7 5.2 0.00 0.00 0.00 85 1013.6
20260509170534 64 211 1.7 5.2 0.00 0.00 0.00 86 1013.5
20260509170047 64 217 1.7 5.2 0.00 0.00 0.00 86 1013.5
20260509165532 64 247 0.9 5.2 0.00 0.00 0.00 87 1013.5
20260509165031 63 272 1.7 5.2 0.00 0.00 0.00 88 1013.6
20260509164554 63 268 1.7 4.3 0.00 0.00 0.00 87 1013.5
20260509164030 63 266 0.9 3.5 0.00 0.00 0.00 88 1013.6
20260509163534 63 204 0.0 3.5 0.00 0.00 0.00 88 1013.6
20260509163045 63 296 0.9 3.5 0.00 0.00 0.00 88 1013.6
20260509162532 62 251 0.9 3.5 0.00 0.00 0.00 89 1013.6
20260509162030 62 246 0.9 3.5 0.00 0.00 0.00 89 1013.7
20260509161555 62 0 0.9 3.5 0.00 0.00 0.00 89 1013.6
20260509161034 62 278 0.9 3.5 0.00 0.00 0.00 89 1013.7
20260509160535 62 276 0.9 2.6 0.00 0.00 0.00 89 1013.7
20260509160044 62 260 0.9 2.6 0.00 0.00 0.00 89 1013.7
20260509155534 62 247 0.9 3.5 0.00 0.00 0.00 89 1013.8
20260509155034 62 228 0.9 3.5 0.00 0.00 0.00 90 1013.8
20260509154548 62 241 0.9 2.6 0.00 0.00 0.00 90 1013.7
20260509154032 61 244 0.9 3.5 0.00 0.00 0.00 90 1013.7
20260509153537 61 250 0.0 3.5 0.00 0.00 0.00 90 1013.6
20260509153055 61 217 1.7 3.5 0.00 0.00 0.00 90 1013.6
20260509152537 61 223 0.9 3.5 0.00 0.00 0.00 90 1013.6
20260509152031 61 244 0.0 2.6 0.00 0.00 0.00 91 1013.7
20260509151547 61 223 0.0 2.6 0.00 0.00 0.00 91 1013.7
20260509151031 61 0 0.0 1.7 0.00 0.00 0.00 91 1013.7
20260509150531 61 0 0.0 1.7 0.00 0.00 0.00 91 1013.7
20260509150053 61 0 0.0 1.7 0.00 0.00 0.00 91 1013.7
20260509145534 61 0 0.0 1.7 0.00 0.00 0.00 91 1013.7
20260509145034 61 249 0.0 1.7 0.00 0.00 0.00 91 1013.7
20260509144545 61 0 0.0 3.5 0.00 0.00 0.00 91 1013.7
20260509144034 60 249 0.9 3.5 0.00 0.00 0.00 91 1013.6
20260509143534 61 226 0.9 3.5 0.00 0.00 0.00 91 1013.5
20260509143044 60 0 0.9 2.6 0.00 0.00 0.00 91 1013.5
20260509142535 60 0 0.0 0.9 0.00 0.00 0.00 91 1013.6
20260509142033 60 0 0.0 1.7 0.00 0.00 0.00 91 1013.6
20260509141547 60 0 0.0 2.6 0.00 0.00 0.00 91 1013.6
20260509141036 60 224 0.0 2.6 0.00 0.00 0.00 91 1013.5
20260509140531 60 218 0.9 3.5 0.00 0.00 0.00 91 1013.5
20260509140058 60 233 0.9 3.5 0.00 0.00 0.00 91 1013.5
20260509135531 60 223 0.0 2.6 0.00 0.00 0.00 91 1013.5
20260509135036 60 0 0.0 2.6 0.00 0.00 0.00 91 1013.4
20260509134623 60 0 0.9 2.6 0.00 0.00 0.00 91 1013.4
20260509134030 60 223 0.9 2.6 0.00 0.00 0.00 91 1013.5
20260509133535 60 223 0.0 1.7 0.00 0.00 0.00 91 1013.5
20260509133043 60 223 0.0 1.7 0.00 0.00 0.00 90 1013.4
20260509132534 61 0 0.0 1.7 0.00 0.00 0.00 90 1013.4
20260509132031 61 223 0.9 1.7 0.00 0.00 0.00 90 1013.3
20260509131554 61 0 0.0 2.6 0.00 0.00 0.00 90 1013.3
20260509131035 60 216 0.9 3.5 0.00 0.00 0.00 90 1013.4
20260509130535 61 209 0.9 3.5 0.00 0.00 0.00 90 1013.3
20260509130051 61 221 0.9 2.6 0.00 0.00 0.00 90 1013.2
20260509125535 61 0 0.9 3.5 0.00 0.00 0.00 90 1013.3
20260509125036 61 0 0.0 3.5 0.00 0.00 0.00 90 1013.2
20260509124546 61 239 0.9 3.5 0.00 0.00 0.00 90 1013.2
20260509124031 61 229 1.7 2.6 0.00 0.00 0.00 90 1013.2
20260509123534 61 244 0.9 1.7 0.00 0.00 0.00 90 1013.1
20260509123047 61 244 0.0 1.7 0.00 0.00 0.00 90 1013.1
20260509122530 61 0 0.0 0.9 0.00 0.00 0.00 90 1013.1
20260509122031 61 0 0.0 0.9 0.00 0.00 0.00 90 1013.0
20260509121549 61 0 0.0 0.9 0.00 0.00 0.00 90 1013.0
20260509121031 61 0 0.0 0.9 0.00 0.00 0.00 90 1013.0
20260509120531 61 0 0.0 0.0 0.00 0.00 0.00 90 1013.0
20260509120050 61 0 0.0 1.7 0.00 0.00 0.00 90 1013.1
20260509115530 61 0 0.0 1.7 0.00 0.00 0.00 90 1013.1
20260509115034 61 0 0.0 0.0 0.00 0.00 0.00 90 1013.1
20260509114545 61 0 0.0 0.9 0.00 0.00 0.00 90 1013.2
20260509114034 61 0 0.0 1.7 0.00 0.00 0.00 90 1013.2
20260509113535 61 0 0.0 3.5 0.00 0.00 0.00 90 1013.2
20260509113053 61 0 0.0 3.5 0.00 0.00 0.00 90 1013.1
20260509112531 61 223 0.9 3.5 0.00 0.00 0.00 90 1013.1
20260509112034 61 0 0.0 1.7 0.00 0.00 0.00 90 1013.1
20260509111546 61 0 0.0 1.7 0.00 0.00 0.00 90 1013.1
20260509111032 61 0 0.0 1.7 0.00 0.00 0.00 90 1013.1
20260509110536 61 0 0.0 1.7 0.00 0.00 0.00 90 1013.0
20260509110047 61 0 0.0 1.7 0.00 0.00 0.00 90 1013.1
20260509105535 61 0 0.0 1.7 0.00 0.00 0.00 90 1013.2
20260509105034 61 0 0.0 1.7 0.00 0.00 0.00 90 1013.2
20260509104544 61 217 0.0 2.6 0.00 0.00 0.00 90 1013.2
20260509104030 61 0 0.0 2.6 0.00 0.00 0.00 90 1013.2
20260509103530 61 205 0.9 2.6 0.00 0.00 0.00 90 1013.2
20260509103052 61 217 0.9 2.6 0.00 0.00 0.00 90 1013.3
20260509102534 61 221 0.9 3.5 0.00 0.00 0.00 90 1013.3
20260509102035 61 213 1.7 3.5 0.00 0.00 0.00 90 1013.4
20260509101553 61 0 0.9 2.6 0.00 0.00 0.00 90 1013.4
20260509101033 61 236 0.0 2.6 0.00 0.00 0.00 90 1013.3
20260509100534 61 0 0.0 2.6 0.00 0.00 0.00 90 1013.3
20260509100048 61 0 0.0 2.6 0.00 0.00 0.00 90 1013.3
20260509095534 61 236 0.0 2.6 0.00 0.00 0.00 90 1013.4
20260509095031 61 210 0.0 2.6 0.00 0.00 0.00 90 1013.4
20260509094551 61 0 0.0 2.6 0.00 0.00 0.00 90 1013.4
20260509094032 61 223 0.0 1.7 0.00 0.00 0.00 90 1013.5
20260509093532 61 204 0.0 2.6 0.00 0.00 0.00 89 1013.4
20260509093058 61 204 0.0 2.6 0.00 0.00 0.00 89 1013.5
20260509092530 61 220 0.9 2.6 0.00 0.00 0.00 89 1013.5
20260509092033 61 226 0.0 2.6 0.00 0.00 0.00 89 1013.5
20260509091550 61 214 0.0 2.6 0.00 0.00 0.00 89 1013.6
20260509091031 61 214 0.9 2.6 0.00 0.00 0.00 89 1013.6
20260509090532 61 214 0.9 3.5 0.00 0.00 0.00 89 1013.6
20260509090047 61 223 1.7 3.5 0.00 0.00 0.00 89 1013.7
20260509085530 62 225 0.9 3.5 0.00 0.00 0.00 89 1013.7
20260509085034 62 224 0.9 2.6 0.00 0.00 0.00 89 1013.7
20260509084550 62 213 0.9 2.6 0.00 0.00 0.00 88 1013.8
20260509084034 62 238 0.0 2.6 0.00 0.00 0.00 88 1013.8
20260509083534 62 214 0.0 1.7 0.00 0.00 0.00 88 1013.8
20260509083047 62 0 0.0 0.9 0.00 0.00 0.00 88 1013.8
20260509082534 62 0 0.0 1.7 0.00 0.00 0.00 88 1013.9
20260509082032 62 0 0.0 1.7 0.00 0.00 0.00 88 1013.9
20260509081552 62 214 0.0 0.9 0.00 0.00 0.00 89 1014.0
20260509081032 62 0 0.0 0.0 0.00 0.00 0.00 89 1014.0